Miramar MCAS, CA

7:28 PM PDT on August 22, 2017 (GMT -0700)
Miramar Marine Corps Air Station-Mitscher

Weather History for KNKX - November, 2012

Change the Weather History Date:

Monday, November 5, 2012

  Actual Average Record
Temperature  
Mean Temperature 74 °F -  
Max Temperature 91 °F 68 °F 91 °F (2010)
Min Temperature 57 °F 49 °F 45 °F (2002)
Cooling Degree Days 9    
Growing Degree Days 24 (Base 50)    
Moisture  
Dew Point 31 °F    
Average Humidity 26    
Maximum Humidity 55    
Minimum Humidity 8    
Precipitation  
Precipitation 0.00 in - - ()
Sea Level Pressure  
Sea Level Pressure 30.02 in    
Wind  
Wind Speed 6 mph (East)    
Max Wind Speed 12 mph    
Max Gust Speed -    
Visibility 10 miles    
Events      
Averages and records for this station are not official NWS values.
T = Trace of Precipitation, MM = Missing Value Source: NWS Daily Summary

Daily Weather History Graph

Daily Weather History Graph

Search for Another Location

Airport or City:

Trip Planner

Search our weather history database for the weather conditions in past years. The results will help you decide how hot, cold, wet, or windy it might be!

Date:

Astronomy

Nov. 05, 2012 Rise Set
Actual Time 6:10 AM PST 4:53 PM PST
Civil Twilight 5:44 AM PST 5:19 PM PST
Nautical Twilight 5:15 AM PST 5:48 PM PST
Astronomical Twilight 4:46 AM PST 6:17 PM PST
Moon 10:34 PM PST (11/5) 11:32 AM PST (11/5)
Length of Visible Light 11h 34m
Length of Day
10h 43m
Waning Gibbous, 62% of the Moon is Illuminated
Nov 5
Waning Gibbous
Nov 6
Last Quarter
Nov 13
New
Nov 20
First Quarter
Nov 28
Full

Hourly Weather History & Observations

Time (PST) Temp. Dew Point Humidity Pressure Visibility Wind Dir Wind Speed Gust Speed Precip Events Conditions
12:55 AM 66.0 °F 25.0 °F 21% 30.02 in 10.0 mi ENE 9.2 mph - N/A   Clear
1:55 AM 66.9 °F 24.1 °F 20% 30.02 in 10.0 mi ESE 3.5 mph - N/A   Clear
2:55 AM 66.0 °F 25.0 °F 21% 30.00 in 10.0 mi ENE 11.5 mph - N/A   Clear
3:55 AM 68.0 °F 24.1 °F 19% 30.00 in 10.0 mi East 6.9 mph - N/A   Clear
4:55 AM 66.9 °F 23.0 °F 19% 30.01 in 10.0 mi Calm Calm - N/A   Clear
5:55 AM 66.9 °F 23.0 °F 19% 30.02 in 10.0 mi ENE 5.8 mph - N/A   Clear
6:55 AM 66.9 °F 25.0 °F 21% 30.04 in 10.0 mi NE 3.5 mph - N/A   Clear
7:55 AM 82.0 °F 21.9 °F 11% 30.05 in 10.0 mi East 3.5 mph - N/A   Clear
8:55 AM 87.1 °F 19.9 °F 8% 30.05 in 10.0 mi Calm Calm - N/A   Clear
9:55 AM 88.0 °F 23.0 °F 9% 30.05 in 10.0 mi NW 4.6 mph - N/A   Clear
10:55 AM 91.0 °F 25.0 °F 9% 30.03 in 10.0 mi NW 8.1 mph - N/A   Clear
11:55 AM 91.9 °F 21.0 °F 8% 30.00 in 10.0 mi WNW 8.1 mph - N/A   Clear
12:55 PM 88.0 °F 30.9 °F 13% 29.98 in 10.0 mi SW 10.4 mph - N/A   Clear
1:55 PM 86.0 °F 34.0 °F 16% 29.98 in 10.0 mi SW 8.1 mph - N/A   Clear
2:55 PM 82.9 °F 37.9 °F 20% 29.98 in 10.0 mi SSW 4.6 mph - N/A   Clear
3:55 PM 80.1 °F 39.0 °F 23% 29.99 in 10.0 mi South 3.5 mph - N/A   Clear
4:55 PM 72.0 °F 39.9 °F 31% 30.00 in 10.0 mi Calm Calm - N/A   Clear
5:55 PM 64.9 °F 37.9 °F 37% 30.01 in 10.0 mi Calm Calm - N/A   Clear
6:55 PM 63.0 °F 39.9 °F 43% 30.01 in 10.0 mi East 4.6 mph - N/A   Clear
7:55 PM 61.0 °F 42.1 °F 50% 30.01 in 10.0 mi ESE 3.5 mph - N/A   Partly Cloudy
8:55 PM 59.0 °F 43.0 °F 55% 30.03 in 10.0 mi Calm Calm - N/A   Clear
9:55 PM 57.9 °F 41.0 °F 53% 30.03 in 10.0 mi NE 4.6 mph - N/A   Clear
10:55 PM 57.9 °F 41.0 °F 53% 30.03 in 10.0 mi ENE 5.8 mph - N/A   Clear
11:55 PM 59.0 °F 41.0 °F 51% 30.02 in 10.0 mi ENE 8.1 mph - N/A   Clear